Regional Weather Roundup
Issued by NWS

Home | Current Version | Previous Version | Graphics & Text | Print | Product List | Glossary On
Versions: 1 2 3 4 5 6 7 8 9 10 11 12 13 14 15 16 17 18 19 20 21 22 23 24 25 26 27 28 29 30 31 32 33 34 35 36 37 38 39 40 41 42 43 44 45 46 47 48 49 50
000
ASUS43 KLOT 160503
RWRIL

ILLINOIS REGIONAL WEATHER ROUNDUP
NATIONAL WEATHER SERVICE CHICAGO/ROMEOVILLE IL
1100 PM CST MON JAN 15 2018

NOTE: "FAIR" INDICATES FEW OR NO CLOUDS BELOW 12,000 FEET WITH NO
SIGNIFICANT WEATHER AND/OR OBSTRUCTIONS TO VISIBILITY.

* THESE STATIONS ARE NOT UNDER NWS QUALITY CONTROL. THEY ALSO MAY NOT
  REPORT WEATHER SUCH AS PRECIPITATION OR FOG.

ILZ001-002-007-009-015-016-024-160600-
NORTHWEST ILLINOIS

CITY           SKY/WX    TMP DP  RH WIND       PRES   REMARKS
MOLINE         MOCLDY     1  -6  72 W14       30.49R WCI -17
STERLING*      FLURRIES   1  -4  79 W15       30.42R WCI -18
SAVANNA*       FAIR       3  -3  76 W9        30.43R WCI -12
$$

ILZ003-004-008-010-011-017-018-160600-
NORTH CENTRAL ILLINOIS

CITY           SKY/WX    TMP DP  RH WIND       PRES   REMARKS
ROCKFORD       LGT SNOW   6   1  80 W9        30.38R WCI  -8
FREEPORT*      CLOUDY     5   0  80 W13       30.38S WCI -12
ROCHELLE*      LGT SNOW   4   0  83 W13       30.38S WCI -13
DE KALB*       FLURRIES   6   2  84 W16       30.34R WCI -12
PERU*          FAIR       1  -5  75 W18G25    30.42R WCI -20
$$

ILZ005-006-012>014-019>023-160600-
NORTHEAST ILLINOIS

CITY           SKY/WX    TMP DP  RH WIND       PRES   REMARKS
CHICAGO-OHARE  LGT SNOW  11   6  81 W10       30.31R WCI  -3
CHICAGO-MIDWAY LGT SNOW   9   5  84 SW12      30.34R FOG     WCI  -6
AURORA         LGT SNOW   6   2  83 W15       30.36R FOG     WCI -12
LANSING*       LGT SNOW   8   4  87 SW9       30.36S WCI  -6
JOLIET*        LGT SNOW   7   2  82 W8        30.39R WCI  -6
WAUKEGAN       SNOW      19  13  77 VRB6      30.27R VSB 1/2 WCI  11
DUPAGE AIRPORT LGT SNOW   8   5  87 W15       30.32S FOG     WCI  -9
KANKAKEE*      FAIR       2  -4  75 W17       30.42S WCI -18
WHEELING       LGT SNOW  13   9  84 W8        30.32R FOG     WCI   2
MORRIS*        LGT SNOW   4  -1  79 W18G24    30.39R WCI -15
ROMEOVILLE*    LGT SNOW   6   2  86 W17       30.36R WCI -13
NORTHERLY ISL    N/A     10   6  84 SW17        N/A  WCI  -7
$$

LMZ740>746-160600-
SOUTHERN LAKE MICHIGAN

STATION/POSITION SKY/WX   TEMP    WIND        PRES    VSBY  WAVE
                          AIR SEA DIR/SP/G                  HT/PER
                          (F)     (DEG/KT/KT) (MB)    (MI)  (FT/S)
HARRISON CRIB              13     240/ 16/ 19   N/A
BURNHAM HARBOR             10     230/ 12/ 17   N/A
CALUMET HARBOR              8     220/ 10/ 16 1026.5R
BURNS HARBOR               10     230/ 10/ 18 1027.8R
MICHIGAN CITY                     190/ 14/ 17   N/A
$$

ILZ025>027-034>036-040-047-049-050-058-095>099-160600-
WEST-CENTRAL ILLINOIS

CITY           SKY/WX    TMP DP  RH WIND       PRES   REMARKS
QUINCY         PTCLDY     0  -8  69 NW16      30.57S WCI -20
GALESBURG*     FAIR      -2  -7  79 W16G22    30.50R WCI -22
MACOMB*        CLEAR     -1  -8  74 W17       30.56R WCI -22
JACKSONVILLE*  PTCLDY     1  -6  71 W14       30.56R WCI -18
PITTSFIELD*    PTCLDY     2  -6  69 W10       30.58R WCI -13
$$

ILZ028>032-037-038-041>044-048-051>054-059>061-160600-
CENTRAL ILLINOIS

CITY           SKY/WX    TMP DP  RH WIND       PRES   REMARKS
PONTIAC        FAIR       1  -3  80 W17       30.44R WCI -19
BLOOMINGTON    FAIR      -1  -6  79 W16       30.44R WCI -21
DECATUR        FAIR       1  -4  79 W12G21    30.50R WCI -16
PEORIA         FAIR       0  -7  72 W12G22    30.50R WCI -17
LACON*         FAIR       0  -6  73 W9        30.47S WCI -15
LINCOLN*       FAIR       1  -6  71 W9G16     30.51S WCI -14
SPRINGFIELD    FAIR       2  -6  69 W14       30.54R WCI -16
TAYLORVILLE    FAIR       2  -6  69 W10       30.55R WCI -14
$$

ILZ033-039-045-046-055>057-062-063-160600-
EAST-CENTRAL ILLINOIS

CITY           SKY/WX    TMP DP  RH WIND       PRES   REMARKS
CHAMPAIGN      FAIR      -1  -6  79 W13       30.47S WCI -19
DANVILLE*      MOCLDY     3  -4  73 W13       30.43R WCI -15
RANTOUL*       FAIR       2  -3  79 W12       30.45S WCI -14
MATTOON        FAIR       2  -5  72 W15       30.49S WCI -17
PARIS*         MOCLDY     3  -2  78 W13       30.50S WCI -14
$$

ILZ079-100>102-160600-
SOUTHWEST ILLINOIS

CITY           SKY/WX    TMP DP  RH WIND       PRES   REMARKS
ALTON          CLOUDY     6  -1  72 W14       30.60R WCI -11
BELLEVILLE     CLOUDY     9  -2  60 NW14G22   30.58R WCI  -7
CAHOKIA*       PTCLDY     8  -3  61 NW17G24   30.61R WCI -10
SPARTA*        CLOUDY    11   2  67 NW9G16    30.59R WCI  -2
$$

ILZ064>066-069>071-074>076-080>082-084>086-088>090-092>094-160600-
SOUTH-CENTRAL ILLINOIS

CITY           SKY/WX    TMP DP  RH WIND       PRES   REMARKS
CARBONDALE     FAIR      12   1  61 NW10      30.57R WCI  -1
CAIRO*         CLOUDY    16   6  64 NW12      30.57R WCI   3
EFFINGHAM*     FAIR       6  -1  72 W13       30.55S WCI -10
MARION         FAIR      12   0  57 NW7       30.58R WCI   1
MT. VERNON     FAIR      10   0  63 W8        30.56R WCI  -2
CENTRALIA*     CLOUDY    11   2  68 NW12      30.56R WCI  -3
SALEM*         FAIR      10  -1  60 W17       30.55S WCI  -7
METROPOLIS*    CLOUDY    16   4  61 NW10G20   30.56R WCI   3
$$

ILZ067-068-072-073-078-083-087-091-160600-
SOUTHEAST ILLINOIS

CITY           SKY/WX    TMP DP  RH WIND       PRES   REMARKS
LAWRENCEVILLE  FAIR       9   0  67 NW21G28   30.54R WCI -11
FLORA*         FAIR      10   0  63 NW15      29.59F WCI  -7
FAIRFIELD*     FAIR      10   0  62 NW7       30.55R WCI   0
HARRISBURG*    CLOUDY    13   2  63 NW15      30.57R WCI  -3
ROBINSON*      FAIR       6  -1  70 NW10      30.54S WCI  -8
CARMI*         MOCLDY    12   3  67 NW15G24   30.55R WCI  -4
$$

ABBREVIATIONS USED IN REMARKS
   TC - TEMPERATURE IN CELSIUS
  WCI - WIND CHILL INDEX
   HX - HEAT INDEX
  VSB - VISIBILITY
$$





USA.gov is the U.S. government's official web portal to all federal, state and local government web resources and services.